Time,TemperatureF,DewpointF,PressureIn,WindDirection,WindDirectionDegrees,WindSpeedMPH,WindSpeedGustMPH,Humidity,HourlyPrecipIn,Conditions,Clouds,dailyrainin,SoftwareType,DateUTC
2013-03-22 00:09:00,36.9,37.0,29.84,NNW,337,3.0,-999.0,100,-99.99,,,0.00,weatherlink.com 1.10,2013-03-22 07:09:00,
2013-03-22 00:39:00,35.3,35.0,29.88,NE,52,2.0,-999.0,100,-99.99,,,0.00,weatherlink.com 1.10,2013-03-22 07:39:00,
2013-03-22 00:54:00,35.2,35.0,29.88,North,352,3.0,-999.0,100,-99.99,,,0.00,weatherlink.com 1.10,2013-03-22 07:54:00,
2013-03-22 01:09:00,35.0,35.0,29.89,NNW,344,8.0,-999.0,100,-99.99,,,0.00,weatherlink.com 1.10,2013-03-22 08:09:00,
2013-03-22 01:24:00,34.9,35.0,29.87,NE,47,6.0,-999.0,100,-99.99,,,0.00,weatherlink.com 1.10,2013-03-22 08:24:00,
2013-03-22 01:39:00,34.4,34.0,29.87,North,356,3.0,-999.0,100,-99.99,,,0.00,weatherlink.com 1.10,2013-03-22 08:39:00,
2013-03-22 01:55:00,34.1,34.0,29.87,South,169,2.0,-999.0,100,-99.99,,,0.00,weatherlink.com 1.10,2013-03-22 08:55:00,
2013-03-22 02:24:00,33.7,34.0,29.88,SE,144,6.0,-999.0,100,-99.99,,,0.00,weatherlink.com 1.10,2013-03-22 09:24:00,
2013-03-22 02:53:00,33.4,33.0,29.87,NW,325,5.0,-999.0,100,-99.99,,,0.00,weatherlink.com 1.10,2013-03-22 09:53:00,
2013-03-22 03:08:00,33.6,34.0,29.87,WNW,289,1.0,-999.0,100,-99.99,,,0.00,weatherlink.com 1.10,2013-03-22 10:08:00,
2013-03-22 03:24:00,33.8,34.0,29.88,South,182,8.0,-999.0,100,-99.99,,,0.00,weatherlink.com 1.10,2013-03-22 10:24:00,
2013-03-22 03:54:00,33.7,34.0,29.87,SSE,157,2.0,-999.0,100,-99.99,,,0.00,weatherlink.com 1.10,2013-03-22 10:54:00,
2013-03-22 04:09:00,33.4,33.0,29.87,South,184,3.0,-999.0,100,-99.99,,,0.00,weatherlink.com 1.10,2013-03-22 11:09:00,
2013-03-22 04:24:00,33.0,33.0,29.88,SSW,203,3.0,-999.0,100,-99.99,,,0.00,weatherlink.com 1.10,2013-03-22 11:24:00,
2013-03-22 04:40:00,33.0,33.0,29.88,NE,44,9.0,-999.0,100,-99.99,,,0.00,weatherlink.com 1.10,2013-03-22 11:40:00,
2013-03-22 04:55:00,32.7,33.0,29.88,North,4,2.0,-999.0,100,-99.99,,,0.00,weatherlink.com 1.10,2013-03-22 11:55:00,
2013-03-22 05:09:00,32.4,32.0,29.88,NE,44,2.0,-999.0,100,-99.99,,,0.00,weatherlink.com 1.10,2013-03-22 12:09:00,
2013-03-22 05:24:00,32.1,32.0,29.90,NE,52,0.0,-999.0,100,-99.99,,,0.00,weatherlink.com 1.10,2013-03-22 12:24:00,
2013-03-22 05:40:00,32.5,33.0,29.90,SSE,148,5.0,-999.0,100,-99.99,,,0.00,weatherlink.com 1.10,2013-03-22 12:40:00,
2013-03-22 05:54:00,32.7,33.0,29.88,South,181,3.0,-999.0,100,-99.99,,,0.00,weatherlink.com 1.10,2013-03-22 12:54:00,
2013-03-22 06:39:00,31.5,31.0,29.90,SE,141,5.0,-999.0,99,-99.99,,,0.00,weatherlink.com 1.10,2013-03-22 13:39:00,
2013-03-22 06:54:00,31.5,31.0,29.91,SSE,154,6.0,-999.0,99,-99.99,,,0.00,weatherlink.com 1.10,2013-03-22 13:54:00,
2013-03-22 07:09:00,31.3,31.0,29.92,East,96,8.0,-999.0,99,-99.99,,,0.00,weatherlink.com 1.10,2013-03-22 14:09:00,
2013-03-22 07:26:00,31.5,31.0,29.92,SE,145,7.0,-999.0,99,-99.99,,,0.00,weatherlink.com 1.10,2013-03-22 14:26:00,
2013-03-22 07:38:00,31.5,31.0,29.92,SSE,167,6.0,-999.0,99,-99.99,,,0.00,weatherlink.com 1.10,2013-03-22 14:38:00,
2013-03-22 07:53:00,31.6,31.0,29.93,SSE,147,7.0,-999.0,99,-99.99,,,0.00,weatherlink.com 1.10,2013-03-22 14:53:00,
2013-03-22 08:39:00,31.3,31.0,29.94,SSE,162,3.0,-999.0,99,-99.99,,,0.00,weatherlink.com 1.10,2013-03-22 15:39:00,
2013-03-22 09:39:00,32.8,33.0,29.94,ESE,117,3.0,-999.0,100,-99.99,,,0.00,weatherlink.com 1.10,2013-03-22 16:39:00,
2013-03-22 10:09:00,34.6,35.0,29.94,ESE,106,0.0,-999.0,100,-99.99,,,0.00,weatherlink.com 1.10,2013-03-22 17:09:00,
2013-03-22 10:26:00,34.9,35.0,29.94,SE,133,2.0,-999.0,100,-99.99,,,0.00,weatherlink.com 1.10,2013-03-22 17:26:00,
2013-03-22 10:41:00,34.9,35.0,29.94,SSW,195,2.0,-999.0,100,-99.99,,,0.00,weatherlink.com 1.10,2013-03-22 17:41:00,
2013-03-22 10:54:00,36.4,36.0,29.94,East,96,6.0,-999.0,100,-99.99,,,0.00,weatherlink.com 1.10,2013-03-22 17:54:00,
2013-03-22 11:09:00,37.2,37.0,29.93,ESE,119,8.0,-999.0,100,-99.99,,,0.00,weatherlink.com 1.10,2013-03-22 18:09:00,
2013-03-22 11:25:00,38.4,38.0,29.93,SSE,160,1.0,-999.0,100,-99.99,,,0.00,weatherlink.com 1.10,2013-03-22 18:25:00,
2013-03-22 11:39:00,40.5,41.0,29.92,SSE,162,5.0,-999.0,100,-99.99,,,0.00,weatherlink.com 1.10,2013-03-22 18:39:00,
2013-03-22 12:09:00,39.7,40.0,29.90,SE,141,7.0,-999.0,100,-99.99,,,0.00,weatherlink.com 1.10,2013-03-22 19:09:00,
2013-03-22 12:24:00,40.7,41.0,29.93,ESE,123,8.0,-999.0,100,-99.99,,,0.00,weatherlink.com 1.10,2013-03-22 19:24:00,
2013-03-22 12:39:00,41.5,42.0,29.93,NNW,337,1.0,-999.0,100,-99.99,,,0.00,weatherlink.com 1.10,2013-03-22 19:39:00,
2013-03-22 12:55:00,41.5,42.0,29.91,NNW,339,1.0,-999.0,100,-99.99,,,0.00,weatherlink.com 1.10,2013-03-22 19:55:00,
2013-03-22 13:10:00,42.0,42.0,29.91,NW,312,5.0,-999.0,100,-99.99,,,0.00,weatherlink.com 1.10,2013-03-22 20:10:00,
2013-03-22 13:24:00,40.4,40.0,29.92,ENE,62,4.0,-999.0,100,-99.99,,,0.00,weatherlink.com 1.10,2013-03-22 20:24:00,
2013-03-22 13:54:00,39.5,40.0,29.92,North,359,7.0,-999.0,100,-99.99,,,0.00,weatherlink.com 1.10,2013-03-22 20:54:00,
2013-03-22 14:09:00,39.7,40.0,29.91,ESE,120,0.0,-999.0,100,-99.99,,,0.00,weatherlink.com 1.10,2013-03-22 21:09:00,
2013-03-22 14:24:00,-999.0,-99.9,29.91,North,-999,-999.0,-999.0,-999,-99.99,,,0.00,weatherlink.com 1.10,2013-03-22 21:24:00,
2013-03-22 14:39:00,-999.0,-99.9,29.93,North,-999,-999.0,-999.0,-999,-99.99,,,0.00,weatherlink.com 1.10,2013-03-22 21:39:00,
2013-03-22 14:53:00,-999.0,-99.9,29.93,North,-999,-999.0,-999.0,-999,-99.99,,,0.00,weatherlink.com 1.10,2013-03-22 21:53:00,
2013-03-22 15:09:00,-999.0,-99.9,29.92,North,-999,-999.0,-999.0,-999,-99.99,,,0.00,weatherlink.com 1.10,2013-03-22 22:09:00,
2013-03-22 15:24:00,-999.0,-99.9,29.92,North,-999,-999.0,-999.0,-999,-99.99,,,0.00,weatherlink.com 1.10,2013-03-22 22:24:00,
2013-03-22 15:40:00,-999.0,-99.9,29.92,North,-999,-999.0,-999.0,-999,-99.99,,,0.00,weatherlink.com 1.10,2013-03-22 22:40:00,
2013-03-22 15:54:00,-999.0,-99.9,29.91,North,-999,-999.0,-999.0,-999,-99.99,,,0.00,weatherlink.com 1.10,2013-03-22 22:54:00,
2013-03-22 16:09:00,-999.0,-99.9,29.92,North,-999,-999.0,-999.0,-999,-99.99,,,0.00,weatherlink.com 1.10,2013-03-22 23:09:00,
2013-03-22 16:24:00,-999.0,-99.9,29.93,North,-999,-999.0,-999.0,-999,-99.99,,,0.00,weatherlink.com 1.10,2013-03-22 23:24:00,
2013-03-22 16:39:00,-999.0,-99.9,29.93,North,-999,-999.0,-999.0,-999,-99.99,,,0.00,weatherlink.com 1.10,2013-03-22 23:39:00,
2013-03-22 16:54:00,-999.0,-99.9,29.93,North,-999,-999.0,-999.0,-999,-99.99,,,0.00,weatherlink.com 1.10,2013-03-22 23:54:00,
2013-03-22 17:09:00,-999.0,-99.9,29.93,North,-999,-999.0,-999.0,-999,-99.99,,,0.00,weatherlink.com 1.10,2013-03-23 00:09:00,
2013-03-22 17:24:00,39.2,33.0,29.92,WNW,292,12.0,-999.0,78,-99.99,,,0.00,weatherlink.com 1.10,2013-03-23 00:24:00,
2013-03-22 17:38:00,39.5,33.0,29.90,WNW,292,5.0,-999.0,77,-99.99,,,0.00,weatherlink.com 1.10,2013-03-23 00:38:00,
2013-03-22 17:54:00,39.5,33.0,29.90,West,278,12.0,-999.0,77,-99.99,,,0.00,weatherlink.com 1.10,2013-03-23 00:54:00,
2013-03-22 18:09:00,38.9,32.0,29.90,WNW,291,0.0,-999.0,77,-99.99,,,0.00,weatherlink.com 1.10,2013-03-23 01:09:00,
2013-03-22 18:24:00,38.8,32.0,29.92,WNW,282,5.0,-999.0,77,-99.99,,,0.00,weatherlink.com 1.10,2013-03-23 01:24:00,
2013-03-22 18:39:00,37.8,32.0,29.93,SW,236,6.0,-999.0,81,-99.99,,,0.00,weatherlink.com 1.10,2013-03-23 01:39:00,
2013-03-22 18:54:00,37.1,33.0,29.94,NW,320,6.0,-999.0,84,-99.99,,,0.00,weatherlink.com 1.10,2013-03-23 01:54:00,
2013-03-22 19:09:00,36.4,33.0,29.94,WSW,241,10.0,-999.0,86,-99.99,,,0.00,weatherlink.com 1.10,2013-03-23 02:09:00,
2013-03-22 19:24:00,35.8,33.0,29.95,West,272,7.0,-999.0,88,-99.99,,,0.00,weatherlink.com 1.10,2013-03-23 02:24:00,
2013-03-22 19:39:00,35.6,33.0,29.95,WSW,248,0.0,-999.0,89,-99.99,,,0.00,weatherlink.com 1.10,2013-03-23 02:39:00,
2013-03-22 19:54:00,35.3,33.0,29.96,WNW,288,10.0,-999.0,90,-99.99,,,0.00,weatherlink.com 1.10,2013-03-23 02:54:00,
2013-03-22 20:09:00,35.3,33.0,29.97,WNW,301,2.0,-999.0,91,-99.99,,,0.00,weatherlink.com 1.10,2013-03-23 03:09:00,
2013-03-22 20:24:00,35.3,33.0,29.98,SW,224,0.0,-999.0,92,-99.99,,,0.00,weatherlink.com 1.10,2013-03-23 03:24:00,
2013-03-22 20:39:00,35.3,34.0,29.97,WNW,299,5.0,-999.0,93,-99.99,,,0.00,weatherlink.com 1.10,2013-03-23 03:39:00,
2013-03-22 20:54:00,35.2,33.0,29.98,NW,316,5.0,-999.0,93,-99.99,,,0.00,weatherlink.com 1.10,2013-03-23 03:54:00,
2013-03-22 21:09:00,34.7,33.0,29.99,SSE,168,12.0,-999.0,92,-99.99,,,0.00,weatherlink.com 1.10,2013-03-23 04:09:00,
2013-03-22 21:24:00,34.9,33.0,29.98,NNW,336,6.0,-999.0,92,-99.99,,,0.00,weatherlink.com 1.10,2013-03-23 04:24:00,
2013-03-22 21:39:00,35.0,34.0,29.99,NW,315,3.0,-999.0,95,-99.99,,,0.00,weatherlink.com 1.10,2013-03-23 04:39:00,
2013-03-22 21:54:00,35.2,34.0,30.00,WNW,289,6.0,-999.0,96,-99.99,,,0.00,weatherlink.com 1.10,2013-03-23 04:54:00,
2013-03-22 22:09:00,35.0,34.0,30.00,WNW,291,0.0,-999.0,97,-99.99,,,0.00,weatherlink.com 1.10,2013-03-23 05:09:00,
2013-03-22 22:24:00,35.0,34.0,29.98,NNE,31,6.0,-999.0,97,-99.99,,,0.00,weatherlink.com 1.10,2013-03-23 05:24:00,
2013-03-22 22:39:00,34.9,34.0,29.98,West,270,0.0,-999.0,98,-99.99,,,0.00,weatherlink.com 1.10,2013-03-23 05:39:00,
2013-03-22 22:54:00,34.9,34.0,29.98,NNW,342,5.0,-999.0,98,-99.99,,,0.00,weatherlink.com 1.10,2013-03-23 05:54:00,
2013-03-22 23:10:00,34.7,34.0,29.99,North,8,4.0,-999.0,98,-99.99,,,0.00,weatherlink.com 1.10,2013-03-23 06:10:00,
2013-03-22 23:24:00,34.4,34.0,29.98,NE,47,2.0,-999.0,98,-99.99,,,0.00,weatherlink.com 1.10,2013-03-23 06:24:00,
2013-03-22 23:39:00,34.0,34.0,29.99,North,352,7.0,-999.0,98,-99.99,,,0.00,weatherlink.com 1.10,2013-03-23 06:39:00,
2013-03-22 23:54:00,33.7,33.0,29.98,South,175,3.0,-999.0,98,-99.99,,,0.00,weatherlink.com 1.10,2013-03-23 06:54:00,